sat.trackr.live / text

‹ back to catalog

STARLINK-34192

NORAD 64014 · 2025-101W

PAYLOAD ACTIVE UNKNOWN

§ Identity

Operator
Country
US
Launch date
2025-05-14
Launch site
AFETR
Launch vehicle
Mass (kg)
RCS (m²)

Purposes: comms

External: N2YO · Heavens-Above · Gunter

§ Orbital elements

Epoch: 2026-05-24T21:10:51.430944Z

Period
94.27 min
Inclination
42.9979°
Eccentricity
0.0001084
Mean motion
15.27594168 rev/d
Perigee alt
482.3 km
Apogee alt
483.8 km
Semi-major
6,861.1 km
B*
7.0054e-4
RAAN
288.0339°
Arg perigee
272.6117°
Mean anomaly
87.4611°
Rev number
5,870

§ Raw data

STARLINK-341921 64014U 25101W   26144.88253971  .00019073  00000+0  70054-3 0  99922 64014  42.9979 288.0339 0001084 272.6117  87.4611 15.27594168 58704

JSON: /api/v1/satellites/64014 · /tle

For live sub-satellite position, see the globe view (requires WebGL).

§ Visibility from observer

Set your observer location to see the next 7 days of passes ≥ 10°. The values pass through the URL so the page stays shareable.

No JS? Fill the form by hand. The geolocation button needs JavaScript.